STARLINK-11515 [DTC] (62556 NORAD) Tracking and Keplerian Element Data

This shows tracking and keplerian element data for the satellite.

Feedback or suggestion? Click here.




ElementValue
Catalog62556
NameSTARLINK-11515 [DTC]
Epoch Orbit5408
Epoch Day354.11360185
Epoch Year2025
RAAN259.8691
Inclination43
Eccentricity0.000203
Argument of Perigee261.1299
Mean Anonmoly98.9339
Mean Motion15.70858905
Decay Rate0.00158189
L11 62556U 25006C 25354.11360185 .00158189 00000+0 12120-2 0 9990
L22 62556 43.0000 259.8691 0002030 261.1299 98.9339 15.70858905 54084



Live tracking and technical data element details for STARLINK-11515 [DTC] (NORAD 62556). STARLINK-11515 [DTC] can be tracked NOW for your location showing map with azimuth and elevation plus other details from your city location.







IsCatalogInMostPopularTable: catalog: 62556, numindb: 59
Update: records affected: 1



GetName: 62556 STARLINK-11515 [DTC]

Hit Count: updated at: Sun, 08 Feb 2026 09:00:54 GMT